[[{"header":{"parameterUnit":"m.s-1","parameterCategory":2,"la1":30.2992,"la2":30.254,"lo1":-89.0895,"lo2":-89.0443,"dy":0.0025,"dx":0.0025,"nx":19,"ny":19,"refTime":"2026-05-20T21:00:00:Z","depth":"0","parameterNumber":2,"parameterNumberName":"U-component_of_CURRENTS"},"data":[0,0,0,0.3514,0.3519,0.371,0.371,0.3834,0.3835,0,0,0,0,0,0,0,0,0,0,0,0.3422,0.3424,0.3514,0.352,0.371,0.371,0.3834,0.3835,0,0,0,0,0,0,0,0,0,0,0,0.3422,0.3423,0.3425,0.352,0.371,0.371,0.3834,0.3714,0,0,0,0,0,0,0,0,0,0,0.3542,0.3461,0.3423,0.3425,0.3522,0.371,0.371,0.371,0.3722,0.3721,0,0.3755,0,0.3818,0.3843,0.3843,0,0,0,0.3497,0.3451,0.3533,0.3425,0.3524,0.3709,0.3618,0.3717,0.3731,0.3736,0.3757,0.3764,0.382,0.3844,0.3844,0.4012,0.4012,0,0,0.3487,0.3426,0.3524,0.3542,0.3578,0.3612,0.3624,0.3726,0.3721,0.3758,0.3768,0.3822,0.3844,0.3845,0.4011,0.4012,0,0,0,0.3471,0.3418,0.3499,0.3535,0.3591,0.3618,0.3632,0.3716,0.3752,0.377,0.3824,0.3845,0.3846,0.401,0.4011,0.4029,0,0,0,0.3464,0.3413,0.3494,0.3455,0.359,0.3669,0.3617,0.3744,0.3759,0.3823,0.3845,0.3847,0.4008,0.401,0.4026,0.4013,0,0,0,0.3413,0.3407,0.3437,0.3453,0.3553,0.367,0.3711,0.3749,0.3793,0.3843,0.3848,0.4008,0.401,0.4024,0.401,0.404,0,0,0,0.3332,0.3385,0.3435,0.3514,0.3551,0.3709,0.3711,0.3808,0.3855,0.3846,0.4009,0.4011,0.4023,0.4008,0.4038,0.404,0.405,0,0,0.3361,0.3386,0.344,0.3493,0.3641,0.3681,0.3814,0.3867,0.3889,0.3959,0.3965,0.4027,0.401,0.404,0.4175,0.418,0,0,0,0.3427,0.3462,0.3516,0.3613,0.3731,0.382,0.3898,0.3933,0.4007,0.3936,0.407,0.4059,0.4076,0.4076,0.4081,0.3723,0.4022,0.4021,0.4021,0.3366,0.3469,0.3566,0.3699,0.3788,0.3924,0.3986,0.4049,0.4065,0.4108,0.4106,0.4183,0.4185,0.4188,0.3821,0.4155,0.4155,0.4155,0.4155,0.3423,0.3499,0.3599,0.3724,0.3834,0.3935,0.4073,0.41,0.4185,0.4176,0.4193,0.4135,0.4194,0.3801,0.4157,0.4157,0.4157,0.4157,0.4156,0.3396,0.3453,0.3521,0.369,0.3799,0.3936,0.4035,0.4123,0.4186,0.4216,0.4224,0.4224,0.3847,0.4232,0.4232,0.4233,0.4233,0.4233,0.4233,0.3349,0.3432,0.3516,0.3665,0.3739,0.3854,0.4012,0.4084,0.4197,0.4242,0.4242,0.3836,0.4206,0.4167,0.4234,0.4234,0.4234,0.4234,0.4234,0.3365,0.3384,0.3509,0.3581,0.3746,0.3767,0.3933,0.4075,0.4173,0.4222,0.3841,0.4266,0.4255,0.4251,0.4216,0.4291,0.4291,0.4291,0.4291,0.3341,0.3377,0.3505,0.3604,0.3706,0.3742,0.3722,0.3819,0.381,0.3693,0.3658,0.3581,0.3595,0.3538,0.355,0.3498,0.3389,0.3387,0.3385,0.3347,0.3396,0.3454,0.3575,0.3681,0.3663,0.351,0.3321,0.3287,0.3307,0.315,0.3188,0.3032,0.3083,0.2966,0.3012,0.2918,0,0]},{"header":{"parameterUnit":"m.s-1","parameterCategory":2,"la1":30.2992,"la2":30.254,"lo1":-89.0895,"lo2":-89.0443,"dy":0.0025,"dx":0.0025,"nx":19,"ny":19,"refTime":"2026-05-20T21:00:00:Z","depth":"0","parameterNumber":3,"parameterNumberName":"V-component_of_CURRENTS"},"data":[0,0,0,0.0198,0.0197,0.015,0.015,0.0076,0.0075,0,0,0,0,0,0,0,0,0,0,0,0.0228,0.0228,0.0198,0.0197,0.015,0.015,0.0076,0.0075,0,0,0,0,0,0,0,0,0,0,0,0.0228,0.0228,0.0228,0.0197,0.015,0.015,0.0076,0.0115,0,0,0,0,0,0,0,0,0,0,0.0162,0.0189,0.0228,0.0228,0.0196,0.0151,0.015,0.0117,0.0112,0.0093,0,0.0098,0,0.0079,0.007,0.007,0,0,0,0.0195,0.0193,0.0181,0.0228,0.0196,0.0151,0.0171,0.0114,0.0109,0.0087,0.0097,0.0093,0.0077,0.007,0.0069,0.0059,0.0059,0,0,0.0198,0.0214,0.0185,0.0178,0.0198,0.0172,0.017,0.0111,0.0112,0.0096,0.0091,0.0076,0.0069,0.0069,0.0058,0.0059,0,0,0,0.0206,0.0216,0.0206,0.0182,0.0171,0.0171,0.0168,0.0115,0.0112,0.009,0.0075,0.0069,0.0068,0.0058,0.0058,0.0117,0,0,0,0.0208,0.0221,0.0207,0.0216,0.0173,0.0143,0.0172,0.0116,0.0108,0.0076,0.0069,0.0067,0.0057,0.0058,0.0114,0.0152,0,0,0,0.0227,0.0222,0.0222,0.0217,0.0196,0.0143,0.0137,0.0114,0.0099,0.007,0.0067,0.0057,0.0058,0.0112,0.0148,0.0229,0,0,0,0.0238,0.0266,0.0223,0.0246,0.0196,0.0194,0.0137,0.0128,0.0111,0.0068,0.0057,0.0058,0.0111,0.0145,0.0226,0.0455,0.049,0,0,0.0284,0.0272,0.0286,0.0246,0.0263,0.0199,0.0205,0.0157,0.0119,0.0073,0.0073,0.0115,0.0147,0.0229,0.0518,0.0552,0,0,0,0.0307,0.0319,0.0318,0.0311,0.0288,0.0262,0.0208,0.0184,0.0154,0.0113,0.0121,0.014,0.019,0.032,0.0346,0.0298,0.0064,0.0063,0.0063,0.0376,0.0362,0.0386,0.0366,0.0355,0.0303,0.0289,0.0243,0.0195,0.0199,0.0191,0.0299,0.0438,0.0461,0.0406,0.0189,0.0189,0.0189,0.0189,0.0441,0.0451,0.0427,0.0446,0.0408,0.0398,0.0345,0.0315,0.0319,0.0254,0.0299,0.0379,0.0494,0.0425,0.0193,0.0193,0.0192,0.0192,0.0192,0.0477,0.0483,0.0489,0.0498,0.0492,0.0447,0.0478,0.0419,0.0392,0.0419,0.0587,0.0588,0.0527,0.0454,0.0454,0.0455,0.0455,0.0456,0.0456,0.0511,0.0519,0.0541,0.055,0.055,0.0562,0.0557,0.06,0.0683,0.0689,0.0691,0.0582,0.038,0.0369,0.0464,0.0463,0.0462,0.0461,0.046,0.0566,0.0558,0.0586,0.0598,0.0628,0.0743,0.075,0.0967,0.0996,0.1105,0.0962,0.0844,0.0857,0.0838,0.0839,0.1049,0.1049,0.1049,0.1049,0.059,0.0594,0.0617,0.0644,0.0708,0.0813,0.116,0.1383,0.138,0.1354,0.1169,0.1137,0.1115,0.1136,0.111,0.1113,0.1388,0.1388,0.1387,0.0622,0.0614,0.0639,0.0662,0.0736,0.0956,0.1389,0.1804,0.1691,0.1381,0.1051,0.1037,0.0957,0.0927,0.0928,0.0895,0.0886,0,0]}],[{"header":{"parameterUnit":"m.s-1","parameterCategory":2,"la1":30.2992,"la2":30.254,"lo1":-89.0895,"lo2":-89.0443,"dy":0.0025,"dx":0.0025,"nx":19,"ny":19,"refTime":"2026-05-20T21:00:00:Z","depth":"2","parameterNumber":2,"parameterNumberName":"U-component_of_CURRENTS"},"data":[0,0,0,0.2195,0.2196,0.2204,0.2203,0.2242,0.2243,0,0,0,0,0,0,0,0,0,0,0,0.2177,0.2178,0.2194,0.2196,0.2204,0.2203,0.2242,0.2243,0,0,0,0,0,0,0,0,0,0,0,0.2176,0.2177,0.2178,0.2197,0.2204,0.2203,0.2242,0.2217,0,0,0,0,0,0,0,0,0,0,0.2201,0.2219,0.2177,0.2179,0.2197,0.2204,0.2203,0.2215,0.2218,0.2262,0,0.2289,0,0.2299,0.2251,0.2251,0,0,0,0.2147,0.2216,0.2211,0.2179,0.2198,0.2204,0.2187,0.2216,0.222,0.2268,0.2289,0.2291,0.2299,0.2252,0.2252,0.2393,0.2393,0,0,0.2147,0.218,0.2208,0.2215,0.2236,0.2187,0.2188,0.2218,0.2244,0.2289,0.2292,0.23,0.2252,0.2253,0.2392,0.2393,0,0,0,0.2179,0.218,0.2172,0.2213,0.223,0.2188,0.2189,0.2241,0.2238,0.2293,0.2301,0.2253,0.2254,0.2391,0.2392,0.2444,0,0,0,0.2176,0.2202,0.2172,0.2192,0.223,0.2241,0.2212,0.2234,0.2239,0.23,0.2253,0.2256,0.2391,0.2392,0.2441,0.2489,0,0,0,0.217,0.2202,0.221,0.2194,0.222,0.2239,0.2235,0.2233,0.2247,0.2251,0.2256,0.239,0.2392,0.2439,0.2484,0.2592,0,0,0,0.2188,0.2192,0.2212,0.2259,0.2221,0.2225,0.2234,0.2276,0.2289,0.2254,0.2391,0.2392,0.2438,0.2481,0.2588,0.2437,0.2445,0,0,0.2184,0.2193,0.2224,0.2243,0.2223,0.2218,0.2244,0.2293,0.2323,0.2373,0.2375,0.2442,0.2483,0.2591,0.2529,0.2534,0,0,0,0.2218,0.2227,0.2235,0.2254,0.2258,0.226,0.2291,0.2332,0.2413,0.2349,0.246,0.2486,0.2552,0.2451,0.2456,0.24,0.24,0.24,0.2399,0.2223,0.223,0.2238,0.224,0.226,0.2302,0.2343,0.2407,0.2436,0.2509,0.254,0.2676,0.2567,0.2569,0.254,0.2541,0.2541,0.2541,0.2541,0.2192,0.2188,0.2226,0.223,0.2257,0.2302,0.2413,0.2477,0.2632,0.2606,0.2668,0.2525,0.2578,0.2546,0.2545,0.2544,0.2544,0.2543,0.2543,0.2166,0.2141,0.22,0.2208,0.2276,0.2353,0.2473,0.2592,0.2709,0.2781,0.2737,0.2733,0.2734,0.2854,0.2855,0.2855,0.2856,0.2856,0.2857,0.2087,0.2121,0.2145,0.2194,0.2243,0.2345,0.2561,0.2655,0.2782,0.2814,0.2812,0.2783,0.2773,0.2754,0.2868,0.2866,0.2864,0.2863,0.2863,0.2015,0.2068,0.2076,0.2125,0.2214,0.2229,0.2468,0.2614,0.2765,0.2774,0.282,0.2817,0.2803,0.2794,0.2777,0.2891,0.2891,0.2891,0.2891,0.1977,0.1996,0.2038,0.21,0.2123,0.219,0.218,0.222,0.2423,0.2481,0.2498,0.2333,0.2342,0.2293,0.2296,0.2264,0.2245,0.2244,0.2242,0.1957,0.1972,0.2003,0.2074,0.21,0.2083,0.1943,0.1787,0.1934,0.2211,0.2324,0.2859,0.2657,0.2655,0.2608,0.2603,0.2563,0,0]},{"header":{"parameterUnit":"m.s-1","parameterCategory":2,"la1":30.2992,"la2":30.254,"lo1":-89.0895,"lo2":-89.0443,"dy":0.0025,"dx":0.0025,"nx":19,"ny":19,"refTime":"2026-05-20T21:00:00:Z","depth":"2","parameterNumber":3,"parameterNumberName":"V-component_of_CURRENTS"},"data":[0,0,0,0.0279,0.028,0.0288,0.0288,0.022,0.0219,0,0,0,0,0,0,0,0,0,0,0,0.0283,0.0284,0.0279,0.028,0.0288,0.0288,0.022,0.0219,0,0,0,0,0,0,0,0,0,0,0,0.0283,0.0283,0.0284,0.028,0.0288,0.0288,0.022,0.0233,0,0,0,0,0,0,0,0,0,0,0.0234,0.0239,0.0283,0.0284,0.028,0.0288,0.0288,0.0234,0.0232,0.0195,0,0.0207,0,0.0208,0.0213,0.0213,0,0,0,0.0276,0.0241,0.0254,0.0284,0.028,0.0288,0.0283,0.0233,0.0231,0.0192,0.0206,0.0204,0.0207,0.0213,0.0212,0.0185,0.0185,0,0,0.0275,0.0268,0.0256,0.0253,0.0294,0.0283,0.0283,0.0233,0.0226,0.0206,0.0203,0.0206,0.0212,0.0211,0.0184,0.0185,0,0,0,0.0277,0.0268,0.0284,0.0255,0.0261,0.0283,0.0284,0.0228,0.0238,0.0202,0.0205,0.0211,0.021,0.0184,0.0185,0.0297,0,0,0,0.0276,0.0269,0.0284,0.0277,0.0263,0.0252,0.028,0.0241,0.0236,0.0205,0.0211,0.0209,0.0184,0.0184,0.0293,0.0375,0,0,0,0.0281,0.0269,0.0277,0.0277,0.0284,0.0253,0.0259,0.0241,0.0237,0.0213,0.0209,0.0183,0.0184,0.029,0.0367,0.048,0,0,0,0.0263,0.0294,0.0277,0.0312,0.0284,0.0317,0.026,0.0259,0.0245,0.0211,0.0184,0.0185,0.0289,0.0363,0.0475,0.0538,0.0569,0,0,0.0299,0.0298,0.0323,0.0308,0.037,0.0315,0.0359,0.0306,0.0244,0.0193,0.0193,0.0294,0.0367,0.0479,0.0588,0.0618,0,0,0,0.0333,0.0353,0.0369,0.0396,0.0405,0.0428,0.0368,0.0346,0.0312,0.024,0.028,0.0323,0.0391,0.0416,0.0439,0.0189,0.0189,0.0188,0.0188,0.0363,0.0389,0.0444,0.0476,0.0495,0.0492,0.0508,0.0461,0.0372,0.0373,0.0403,0.0552,0.0577,0.0597,0.0371,0.0371,0.0372,0.0372,0.0372,0.0431,0.0472,0.0505,0.0567,0.0595,0.0623,0.0624,0.0587,0.0613,0.0498,0.0557,0.0518,0.063,0.0381,0.0379,0.0378,0.0377,0.0377,0.0376,0.045,0.0482,0.0514,0.0608,0.0689,0.0713,0.0841,0.0793,0.0738,0.0789,0.0817,0.0815,0.0662,0.0815,0.0816,0.0817,0.0817,0.0818,0.0819,0.0459,0.0502,0.057,0.066,0.0741,0.087,0.0961,0.1035,0.1051,0.0975,0.0974,0.0703,0.0688,0.0688,0.0832,0.083,0.0828,0.0827,0.0826,0.051,0.0512,0.0624,0.0704,0.0922,0.1132,0.1205,0.1368,0.1389,0.1427,0.1084,0.1074,0.1058,0.1037,0.1044,0.1273,0.1273,0.1273,0.1273,0.0533,0.0544,0.0706,0.0859,0.1086,0.1265,0.1541,0.1556,0.1458,0.1292,0.129,0.117,0.1153,0.1133,0.111,0.1113,0.1361,0.1361,0.1361,0.0579,0.0621,0.0753,0.0905,0.1166,0.1457,0.1676,0.1588,0.1331,0.1356,0.1221,0.1295,0.1108,0.1086,0.1038,0.1007,0.1006,0,0]}],[{"header":{"parameterUnit":"m.s-1","parameterCategory":2,"la1":30.2992,"la2":30.254,"lo1":-89.0895,"lo2":-89.0443,"dy":0.0025,"dx":0.0025,"nx":19,"ny":19,"refTime":"2026-05-20T21:00:00:Z","depth":"4","parameterNumber":2,"parameterNumberName":"U-component_of_CURRENTS"},"data":[0,0,0,0.1004,0.1005,0.1089,0.1089,0.1185,0.1185,0,0,0,0,0,0,0,0,0,0,0,0.0994,0.0995,0.1004,0.1005,0.1089,0.1089,0.1185,0.1185,0,0,0,0,0,0,0,0,0,0,0,0.0994,0.0995,0.0996,0.1006,0.1088,0.1089,0.1184,0.1127,0,0,0,0,0,0,0,0,0,0,0.1048,0.1045,0.0994,0.0996,0.1006,0.1088,0.1089,0.1124,0.113,0.1141,0,0.1164,0,0.1164,0.1191,0.1191,0,0,0,0.1016,0.1041,0.105,0.0996,0.1007,0.1088,0.1054,0.1128,0.1135,0.1148,0.1166,0.1169,0.1166,0.1191,0.1191,0.1265,0.1265,0,0,0.1011,0.102,0.1045,0.1054,0.1042,0.1051,0.1056,0.1132,0.1153,0.1166,0.1171,0.1168,0.1192,0.1192,0.1264,0.1265,0,0,0,0.0991,0.1017,0.1025,0.1051,0.106,0.1053,0.1059,0.115,0.115,0.1172,0.1169,0.1192,0.1193,0.1264,0.1265,0.1286,0,0,0,0.0989,0.1003,0.1023,0.103,0.1059,0.1109,0.1076,0.1145,0.1153,0.1168,0.1192,0.1194,0.1264,0.1264,0.1285,0.1285,0,0,0,0.0988,0.1003,0.1014,0.103,0.1058,0.1107,0.1113,0.1147,0.115,0.1191,0.1194,0.1264,0.1264,0.1284,0.1284,0.1345,0,0,0,0.099,0.0993,0.1015,0.1019,0.1057,0.1082,0.1112,0.1152,0.1186,0.1192,0.1264,0.1265,0.1284,0.1283,0.1343,0.1169,0,0,0,0.098,0.0993,0.0988,0.1008,0.1022,0.1071,0.1105,0.1169,0.1197,0.124,0.1242,0.1286,0.1284,0.1344,0.1201,0,0,0,0,0.0974,0.0973,0.0983,0.1002,0.1032,0.1085,0.1141,0.1177,0.1248,0.1218,0.129,0.1288,0.1326,0.1219,0.1267,0.1267,0.1267,0.1267,0.1267,0.0994,0.0982,0.0977,0.0982,0.102,0.1101,0.1154,0.1216,0.1246,0.1286,0.131,0.1373,0.1259,0.1319,0.1319,0.132,0.132,0.132,0.132,0.0969,0.0939,0.0966,0.0955,0.1019,0.1071,0.1175,0.1229,0.1335,0.133,0.1367,0.1252,0.1322,0.1322,0.1321,0.1321,0.1321,0.1321,0.1321,0.0964,0.0931,0.0949,0.0947,0.0995,0.1071,0.1145,0.1244,0.1349,0.1397,0.1327,0.1401,0.1398,0.1444,0.1444,0.1444,0.1444,0.1445,0.1445,0.0933,0.0932,0.0911,0.0931,0.0936,0.1007,0.1147,0.1217,0.134,0.1331,0.1426,0.1415,0.1411,0.1406,0.1449,0.1448,0.1448,0.1447,0.1447,0.0835,0.0885,0.0823,0.0821,0.0826,0.0884,0.1047,0.1165,0.125,0.1285,0.1304,0.131,0.1293,0.1293,0.1282,0.1291,0.1288,0.1286,0,0.0783,0.0798,0.0699,0.0643,0.065,0.0768,0.087,0.0993,0.1119,0.1081,0.1238,0.1252,0.1257,0.123,0.1227,0.1208,0,0,0,0.0705,0.0685,0.0577,0.0531,0.052,0.0687,0.0883,0.0897,0.1115,0.1134,0.1235,0.1248,0.1326,0.1461,0.1451,0.1446,0.1437,0,0]},{"header":{"parameterUnit":"m.s-1","parameterCategory":2,"la1":30.2992,"la2":30.254,"lo1":-89.0895,"lo2":-89.0443,"dy":0.0025,"dx":0.0025,"nx":19,"ny":19,"refTime":"2026-05-20T21:00:00:Z","depth":"4","parameterNumber":3,"parameterNumberName":"V-component_of_CURRENTS"},"data":[0,0,0,0.0338,0.0339,0.0363,0.0363,0.0343,0.0343,0,0,0,0,0,0,0,0,0,0,0,0.0329,0.0329,0.0338,0.0339,0.0363,0.0363,0.0343,0.0343,0,0,0,0,0,0,0,0,0,0,0,0.0328,0.0329,0.033,0.0339,0.0363,0.0363,0.0343,0.0335,0,0,0,0,0,0,0,0,0,0,0.0316,0.0316,0.0329,0.033,0.034,0.0363,0.0363,0.0335,0.0335,0.0322,0,0.0336,0,0.0345,0.0342,0.0342,0,0,0,0.0327,0.0315,0.0329,0.033,0.034,0.0363,0.0349,0.0335,0.0336,0.0322,0.0336,0.0336,0.0344,0.0342,0.0341,0.036,0.036,0,0,0.0325,0.0322,0.0329,0.0329,0.036,0.0348,0.035,0.0336,0.0337,0.0336,0.0336,0.0344,0.0341,0.0341,0.036,0.036,0,0,0,0.033,0.0322,0.0336,0.033,0.0341,0.0349,0.0351,0.0337,0.0345,0.0336,0.0344,0.0341,0.0341,0.0359,0.036,0.0424,0,0,0,0.0328,0.0325,0.0335,0.0332,0.0342,0.0346,0.0353,0.0345,0.0345,0.0344,0.0341,0.0341,0.0359,0.036,0.0421,0.0467,0,0,0,0.0325,0.0325,0.0333,0.0332,0.035,0.0347,0.0353,0.0345,0.035,0.0342,0.0341,0.0359,0.0359,0.0419,0.0462,0.0484,0,0,0,0.0312,0.0331,0.0333,0.0361,0.035,0.0379,0.0353,0.0364,0.0361,0.0341,0.0359,0.036,0.0418,0.0459,0.0481,0.0469,0,0,0,0.0328,0.0333,0.0351,0.0354,0.0401,0.0374,0.0414,0.0396,0.0368,0.0356,0.0357,0.0422,0.0462,0.0483,0.0518,0,0,0,0,0.0351,0.0368,0.0381,0.0413,0.0428,0.0456,0.0435,0.0426,0.0423,0.0373,0.0421,0.0444,0.0456,0.044,0.0364,0.0364,0.0364,0.0364,0.0363,0.0357,0.0386,0.043,0.0469,0.0492,0.0507,0.0519,0.0504,0.0463,0.0473,0.0495,0.0557,0.0543,0.0483,0.0484,0.0484,0.0484,0.0485,0.0485,0.0398,0.0434,0.048,0.0537,0.0575,0.0612,0.0617,0.0597,0.0598,0.0555,0.0562,0.0508,0.0491,0.049,0.0489,0.0488,0.0488,0.0487,0.0487,0.0405,0.0432,0.0478,0.0576,0.0662,0.0701,0.0771,0.0739,0.0677,0.0684,0.0645,0.0602,0.0597,0.0678,0.0678,0.0679,0.0679,0.0679,0.0679,0.0399,0.0447,0.0523,0.0627,0.0718,0.0819,0.0863,0.0855,0.0788,0.0732,0.0704,0.0622,0.0616,0.0608,0.0684,0.0683,0.0683,0.0682,0.0682,0.0422,0.0445,0.056,0.0652,0.0852,0.0922,0.0971,0.0922,0.09,0.0834,0.0743,0.0739,0.0714,0.0706,0.07,0.0806,0.0806,0.0806,0,0.0433,0.0451,0.0617,0.077,0.092,0.0997,0.1004,0.098,0.0871,0.0858,0.0876,0.0776,0.0771,0.0744,0.0737,0.0732,0,0,0,0.0462,0.0512,0.0631,0.0786,0.0966,0.0994,0.1009,0.0975,0.0897,0.0855,0.081,0.0809,0.076,0.0698,0.065,0.0642,0.0628,0,0]}]]